Weather in Zalesovo

Russia / Altai Krai     53°59′23″N   84°44′50″E
temp.,
°C
wind,
m/s
gust,
m/s
humid.,
%
clouds,
%
prec.,
mm/h
press.,
hPa
HPBL,
m
21 january, fri
fri2101:00−22ese11100100 0.0 10379
04:00−22e1110094 0.0 103610
07:00−23ene1110038 0.0 10369
10:00−22nne1110033 0.0 103515
13:00−12ne11885 0.0 1032106
16:00−9n11925 0.0 103016
19:00−15nne239510 0.0 103139
22:00−18nne23965 0.0 103237
22 january, sat
sat2201:00−20nne22995 0.0 103119
04:00−21ne1110010 0.0 103112
07:00−22ene1110012 0.0 10329
10:00−23ene0010015 0.0 10349
13:00−15sse129154 0.0 1033100
16:00−13s119196 0.0 103337
19:00−20ese119936 0.0 10359
22:00−21ne0099100 0.0 10369
23 january, sun
sun2301:00−21e1199100 0.0 10359
04:00−22e01100100 0.0 10359
07:00−22se1199100 0.0 10369
10:00−20s0198100 0.0 103623
13:00−15ssw119171 0.0 1036111
16:00−14s119319 0.0 103560
19:00−19se11100100 0.0 10369
22:00−18ese1198100 0.0 103612
24 january, mon
mon2401:00−18e1198100 0.0 103611
04:00−16se0096100 0.0 103537
07:00−14ene0196100 0.3 103562
10:00−13ne0196100 0.4 103551
13:00−11n1290100 0.6 1035269
16:00−9n128996 0.0 1035286
19:00−17ne229849 0.1 103712
22:00−21nne221007 0.0 103815
25 january, tue
tue2501:00−23nne2210028 0.0 103815
04:00−24nne221008 0.0 103715
07:00−24nne22998 0.0 103717
10:00−25ne22999 0.0 103826
13:00−17ese229135 0.0 1037158
16:00−16s119334 0.0 103684
19:00−22s1110072 0.0 10379
22:00−24e1110084 0.0 10379